Wind_Speed
12 11 11 10 8 9 9 7 7 7 8 9 8 9 8 12 12 12 13 12 11 9 9 9 10 10 10 8 8 8 7 5 3 3 5 6 7 7 9 10 10 11 12 12 12 12 11 10 10
16 13 12 10 10 10 9 6 5 5 5 5 4 5 6 9 10 11 12 12 12 11 10 9 9 10 9 9 7 6 6 5 4 1 2 4 6 7 7 7 9 10 12 13 13 12 12 12 13
18 15 12 10 11 7 8 7 6 6 6 5 5 5 6 7 8 9 10 10 10 9 9 9 9 8 7 8 8 6 4 4 3 2 1 3 4 5 8 9 11 13 14 15 15 16 17 16 15
19 17 15 16 12 8 8 8 8 8 8 7 7 6 6 6 6 6 8 8 9 9 8 7 7 6 5 4 5 5 5 2 1 1 2 3 4 5 5 8 11 13 16 17 18 19 20 20 20
20 18 17 15 12 11 10 10 9 8 8 7 7 6 5 5 6 6 6 7 7 7 7 7 7 6 6 5 4 4 4 3 1 3 5 6 7 9 11 11 12 14 15 16 17 19 19 20 20
21 19 18 16 16 14 12 11 10 8 8 8 9 8 7 6 5 5 4 4 4 5 5 5 5 5 5 5 4 3 1 2 3 4 5 6 8 9 11 13 15 17 18 19 20 20 20 21 23
22 22 23 20 16 16 14 12 11 11 9 10 10 10 8 7 6 5 4 3 2 2 2 1 1 2 3 3 3 2 2 2 2 4 6 7 8 10 12 14 15 17 19 20 21 22 23 24 25
25 24 21 21 18 18 17 15 14 14 14 13 12 11 10 8 7 6 5 4 2 2 2 3 3 3 3 4 4 4 4 4 5 5 6 8 9 11 13 15 17 19 20 21 22 23 24 25 25
26 25 24 25 24 20 20 18 17 15 14 14 13 11 10 9 8 7 5 4 3 0 1 2 3 4 4 5 6 7 7 8 8 9 9 9 11 13 14 16 18 20 21 22 24 25 26 28 29
30 29 32 30 26 19 21 20 17 16 14 14 13 12 11 11 10 9 8 6 5 4 2 1 3 3 5 6 6 8 9 10 11 12 13 13 14 15 15 17 18 21 22 23 25 25 26 28 29
36 32 39 32 23 25 23 22 19 17 16 14 13 16 15 13 12 12 12 11 10 8 7 6 6 6 7 8 9 9 11 13 14 15 16 17 17 18 19 20 22 22 23 25 26 27 28 29 31
38 38 38 36 30 29 27 21 22 20 19 17 17 18 17 15 16 16 17 16 15 13 12 11 11 10 10 12 13 12 14 15 16 18 19 20 22 23 23 23 23 25 26 29 29 30 31 32 33
43 43 43 40 34 32 28 25 25 22 22 21 20 20 20 18 19 20 21 21 19 18 17 14 13 14 16 17 17 16 17 19 19 21 22 23 25 26 27 27 28 29 31 31 32 33 35 36 37
47 48 48 44 37 36 32 30 29 24 26 22 21 23 21 19 19 20 21 22 23 22 21 18 18 19 20 23 22 20 22 22 24 25 26 28 29 29 30 31 32 34 35 35 36 37 39 39 39
52 50 51 46 42 40 37 33 27 27 28 26 25 22 20 17 20 21 24 26 27 25 23 22 24 25 25 24 27 29 26 27 28 28 31 31 32 32 32 34 36 38 39 40 41 42 42 43 42
55 53 53 49 45 43 39 32 30 31 31 28 26 24 21 20 21 24 27 30 29 28 26 28 29 28 30 30 29 30 35 33 31 34 34 35 35 36 37 37 38 40 42 44 45 47 47 46 46
58 57 55 52 48 46 42 34 34 36 33 30 29 27 25 22 22 28 31 33 32 30 32 32 33 33 33 34 37 34 32 36 39 38 40 40 39 40 40 40 41 43 45 47 49 51 51 50 51
58 58 54 54 49 48 45 40 37 39 37 34 31 30 27 25 24 32 33 35 30 32 38 36 37 37 38 38 38 39 39 39 40 41 44 45 46 45 43 45 46 46 48 51 53 54 54 54 53
57 57 58 56 53 53 49 46 40 42 39 35 32 33 31 29 30 34 36 32 32 37 38 40 42 43 43 43 41 41 42 45 45 44 46 48 49 49 48 49 50 51 52 54 56 58 58 57 56
57 56 59 57 56 57 53 50 47 46 41 39 40 38 34 35 36 37 36 35 40 41 44 47 48 47 47 47 46 44 45 48 49 50 49 49 50 52 52 53 54 56 57 58 59 60 59 60 61
56 55 57 58 56 58 58 55 50 48 49 47 43 40 40 41 41 40 39 42 44 46 48 51 50 51 51 50 50 50 50 50 51 53 53 52 52 53 54 55 57 60 61 62 62 58 61 59 61
56 52 53 55 58 60 59 61 56 54 52 51 49 46 46 46 45 44 46 47 47 49 53 54 54 55 55 54 53 52 52 53 54 54 54 53 53 55 57 59 61 63 64 65 60 63 61 63 63
52 52 54 55 58 59 60 64 58 57 55 53 50 51 51 51 51 50 50 52 52 55 58 59 58 58 56 55 54 54 55 55 54 54 54 55 56 58 60 63 64 65 66 66 63 60 63 61 59
55 53 54 57 58 64 61 62 63 58 55 54 54 54 54 54 54 54 55 57 57 60 61 60 59 56 55 55 56 57 57 56 55 55 57 57 58 60 63 64 65 64 62 61 60 60 61 60 61
58 58 58 61 63 64 59 62 61 58 58 57 55 55 56 58 58 59 61 60 60 62 63 61 58 57 56 57 58 57 56 56 56 56 57 59 61 62 64 65 63 59 58 58 59 60 61 58 57
57 57 59 59 62 63 60 65 62 58 58 60 59 59 60 60 60 60 61 63 67 63 60 60 59 59 58 58 57 58 58 57 57 58 60 61 62 64 64 63 59 55 51 51 52 50 49 52 53
57 61 55 56 60 65 66 67 67 63 65 64 63 61 62 61 60 63 66 67 63 60 59 59 57 56 58 61 60 58 58 59 59 61 62 62 64 64 62 58 53 52 53 52 53 53 53 50 51
55 53 54 58 61 61 66 64 66 67 67 67 67 66 66 66 66 68 68 62 59 58 56 56 57 59 59 58 56 58 58 60 59 60 59 61 62 62 59 56 54 54 56 57 56 49 48 48 48
66 60 56 53 54 57 67 71 70 69 71 71 70 70 67 67 66 63 62 64 62 61 59 59 58 56 55 56 56 58 59 59 58 57 58 59 55 54 54 54 54 54 52 49 48 46 49 48 48
59 60 62 65 68 68 68 73 61 63 65 67 67 66 64 62 59 59 60 62 63 60 58 58 57 55 54 56 56 57 55 52 52 54 54 55 55 54 53 52 50 52 52 49 47 47 48 51 52
Wind_Direction
175 168 162 157 146 154 124 122 117 112 106 95 93 92 94 93 96 97 95 93 93 93 88 81 73 64 56 60 69 73 78 86 99 74 42 31 27 37 34 29 24 22 16 11 5 360 347 335 326
181 176 173 172 176 161 154 155 152 144 125 121 117 108 98 101 102 103 100 98 94 94 95 93 85 76 70 62 61 66 89 90 87 59 10 354 353 5 13 10 2 360 355 353 352 351 347 342 330
182 180 179 193 205 171 173 177 172 161 151 145 137 126 112 106 106 106 105 102 99 98 101 102 102 98 93 89 84 80 61 52 73 96 355 354 344 344 346 343 345 346 347 347 345 342 340 338 332
183 186 190 203 195 190 197 186 173 155 157 156 141 129 115 112 107 108 106 105 102 95 87 84 84 87 78 75 70 75 91 91 44 44 307 306 318 321 327 328 327 330 332 332 333 333 331 332 329
195 198 205 214 208 199 201 194 183 176 180 185 182 162 148 133 116 107 101 97 95 97 94 92 87 85 83 81 72 49 26 21 347 280 277 280 288 301 307 306 307 310 312 315 317 320 319 319 320
205 206 215 218 209 207 208 206 203 205 215 217 216 199 191 185 153 129 108 100 101 102 102 96 91 83 78 73 73 82 75 350 337 329 311 303 298 298 300 303 306 307 310 312 313 314 313 314 315
214 216 215 217 201 213 211 219 228 236 239 242 238 226 217 208 179 154 130 102 81 77 84 83 56 56 39 36 39 34 4 334 297 288 288 297 301 305 308 309 310 310 310 311 312 311 312 312 313
218 218 217 225 215 217 225 228 235 247 251 248 243 236 228 214 195 174 158 132 91 44 17 346 335 323 329 321 321 318 312 311 316 314 308 303 299 299 301 306 309 311 311 311 310 309 308 307 306
219 219 218 224 225 221 231 234 236 240 243 240 234 229 222 216 210 205 198 181 169 126 16 19 7 353 346 334 316 306 301 299 299 296 296 298 302 305 305 303 304 306 309 311 312 313 313 310 308
223 223 226 226 228 238 242 234 235 236 237 236 230 232 229 222 222 227 231 232 231 231 233 277 307 309 311 314 322 318 314 310 306 303 299 299 297 297 298 297 298 301 304 306 308 308 309 310 310
227 228 234 235 235 240 233 232 232 234 236 237 231 236 237 234 237 248 249 244 244 238 234 242 253 270 280 292 303 309 308 308 310 308 308 307 304 302 299 296 299 298 299 300 300 301 303 303 304
231 232 237 237 238 233 226 231 233 237 241 239 242 242 242 244 252 257 257 254 254 247 240 246 262 274 281 288 296 301 300 300 302 303 305 305 304 303 303 302 300 300 299 298 297 298 298 300 300
235 237 240 239 233 227 222 225 233 240 247 245 246 247 249 251 255 257 259 262 263 258 252 252 263 277 281 280 283 289 290 294 296 296 296 296 296 298 301 302 302 300 299 298 298 298 299 300 301
240 240 243 238 227 224 221 225 236 238 249 245 248 249 251 253 256 260 260 263 263 263 265 269 272 277 280 287 284 284 286 288 292 293 293 293 293 294 296 298 300 299 299 301 301 298 295 295 295
242 244 243 233 226 223 225 228 234 234 241 244 246 248 249 249 253 257 261 262 265 268 274 280 283 282 280 281 286 287 283 288 291 291 292 291 292 293 295 298 299 299 301 300 298 297 296 295 294
248 246 239 234 229 228 228 225 229 234 238 242 242 244 245 242 250 256 259 263 268 273 282 281 281 284 285 281 279 284 289 288 288 290 289 290 292 292 295 296 297 297 296 297 297 297 297 295 293
247 243 239 236 236 232 231 226 229 234 236 237 240 244 244 244 252 258 262 267 272 281 280 279 283 285 282 282 284 279 282 288 290 290 292 290 290 291 293 295 295 295 296 296 296 295 294 293 292
251 249 246 243 239 238 234 231 227 235 237 236 239 245 249 251 255 263 269 273 286 286 280 281 281 280 280 282 282 284 287 286 285 287 288 289 290 290 291 292 293 293 293 294 293 292 292 292 292
250 248 243 242 243 236 235 236 229 238 240 242 242 248 250 253 254 265 273 285 286 282 288 286 282 279 279 279 281 281 283 285 286 285 285 286 288 288 289 290 291 292 292 292 291 292 292 292 292
246 245 244 244 242 242 238 236 235 238 243 244 244 248 253 258 260 264 277 282 279 286 289 289 288 284 281 281 282 281 281 284 286 287 287 286 285 286 288 289 291 293 293 292 291 290 290 289 290
245 244 246 246 246 244 243 239 237 238 242 244 247 250 252 256 261 267 273 275 279 284 289 288 286 285 283 282 281 281 284 285 286 287 287 287 286 285 287 289 290 289 289 289 287 287 288 287 289
244 244 245 246 247 245 247 244 241 241 243 248 250 253 256 259 264 269 271 276 280 285 289 288 285 283 281 279 281 282 284 285 287 288 287 286 285 285 287 287 287 286 286 286 283 286 285 286 287
246 246 245 245 247 248 246 249 242 244 245 247 252 254 257 262 265 270 274 278 279 282 285 284 282 281 281 282 283 283 285 287 287 286 285 285 285 286 286 285 284 284 285 286 287 285 287 287 285
243 245 246 247 247 247 246 250 247 246 252 253 256 258 260 262 265 270 272 275 276 281 284 284 282 280 280 282 283 284 286 287 287 287 286 286 288 287 286 286 285 284 283 282 282 282 283 283 283
246 246 247 248 249 251 253 252 256 256 256 258 258 260 265 266 267 269 271 274 277 281 280 279 278 280 280 282 284 286 286 287 287 286 286 287 286 286 285 284 285 285 285 284 284 283 281 282 283
248 251 252 256 257 256 254 253 252 259 261 264 266 265 267 269 270 271 273 276 281 280 276 276 278 281 283 286 286 286 287 288 288 286 285 285 285 283 282 283 284 285 284 283 282 281 280 281 281
249 249 255 256 256 258 256 255 256 258 263 262 264 267 268 268 271 275 278 278 277 277 277 277 279 281 283 285 287 289 290 289 288 286 287 287 285 283 282 280 277 277 277 277 279 279 282 286 286
250 250 249 250 251 253 257 257 258 259 259 260 263 264 267 271 274 275 277 276 276 276 277 279 281 282 283 285 286 286 287 284 285 286 283 281 280 278 275 275 275 276 278 279 282 282 281 284 287
252 254 255 255 255 259 258 258 260 261 264 265 268 269 271 275 276 275 275 277 279 280 281 282 282 283 284 284 285 286 285 285 285 283 280 278 276 275 277 277 277 278 278 276 278 280 282 280 278
255 253 252 254 256 256 260 258 261 264 269 271 271 272 273 274 274 274 274 274 278 283 283 284 285 286 286 287 286 285 285 280 276 273 273 273 273 275 276 278 279 278 277 275 275 278 279 282 282
Height
5869 5870 5871 5872 5875 5873 5873 5873 5873 5873 5873 5873 5873 5873 5873 5871 5871 5874 5871 5871 5871 5870 5871 5871 5871 5871 5870 5869 5868 5869 5869 5870 5871 5873 5874 5874 5875 5874 5875 5875 5874 5873 5873 5872 5871 5870 5870 5869 5868
5867 5869 5870 5871 5872 5871 5873 5873 5873 5873 5873 5873 5874 5873 5873 5873 5872 5872 5872 5872 5872 5872 5872 5871 5871 5871 5871 5870 5870 5870 5870 5870 5871 5872 5873 5874 5875 5875 5875 5874 5874 5873 5873 5872 5871 5871 5870 5869 5868
5865 5867 5869 5870 5870 5870 5872 5873 5873 5873 5873 5873 5874 5873 5873 5873 5873 5873 5873 5873 5873 5873 5872 5872 5872 5871 5871 5871 5870 5870 5871 5872 5872 5872 5873 5873 5874 5874 5875 5875 5875 5874 5873 5873 5872 5871 5870 5869 5868
5863 5866 5868 5867 5869 5870 5871 5873 5873 5872 5873 5873 5873 5873 5873 5873 5873 5873 5873 5874 5873 5874 5874 5873 5873 5873 5873 5872 5872 5871 5871 5871 5872 5872 5873 5873 5873 5873 5872 5872 5873 5873 5873 5872 5871 5870 5869 5868 5867
5861 5863 5864 5865 5867 5869 5870 5871 5872 5872 5873 5873 5873 5873 5873 5873 5873 5873 5874 5874 5874 5874 5874 5874 5874 5873 5873 5873 5873 5873 5873 5873 5872 5872 5872 5872 5872 5872 5872 5871 5871 5871 5870 5870 5869 5868 5867 5866 5864
5858 5861 5863 5863 5865 5866 5868 5870 5871 5872 5872 5872 5873 5872 5873 5873 5873 5873 5874 5874 5874 5874 5874 5874 5874 5873 5873 5873 5873 5873 5873 5873 5873 5873 5872 5871 5870 5870 5869 5869 5869 5869 5869 5868 5867 5866 5865 5864 5862
5856 5858 5858 5859 5862 5864 5866 5868 5869 5870 5871 5871 5871 5872 5872 5872 5872 5872 5872 5873 5873 5873 5873 5873 5873 5873 5873 5873 5873 5873 5872 5872 5872 5872 5871 5871 5871 5870 5869 5868 5867 5867 5866 5866 5865 5864 5863 5862 5860
5852 5854 5857 5857 5860 5862 5863 5865 5866 5868 5868 5869 5870 5871 5871 5871 5871 5871 5871 5872 5873 5872 5872 5872 5873 5873 5872 5872 5872 5871 5871 5871 5871 5871 5871 5870 5870 5869 5868 5867 5866 5865 5864 5863 5862 5861 5860 5859 5857
5848 5851 5853 5853 5855 5858 5860 5862 5864 5864 5865 5867 5868 5869 5869 5870 5870 5870 5870 5870 5871 5871 5870 5871 5871 5871 5871 5870 5870 5870 5870 5869 5869 5869 5868 5868 5867 5866 5866 5864 5863 5862 5861 5860 5858 5857 5856 5855 5853
5843 5847 5846 5847 5851 5855 5857 5858 5861 5862 5863 5865 5866 5867 5867 5868 5869 5869 5869 5869 5868 5869 5868 5869 5869 5868 5868 5868 5868 5868 5868 5867 5867 5866 5865 5865 5864 5863 5863 5861 5860 5858 5857 5856 5854 5853 5851 5850 5849
5838 5843 5838 5845 5851 5850 5853 5854 5856 5858 5860 5862 5864 5864 5865 5866 5867 5867 5867 5866 5866 5865 5866 5865 5865 5865 5865 5866 5866 5866 5865 5865 5864 5863 5862 5861 5860 5859 5858 5856 5855 5854 5853 5851 5849 5848 5847 5845 5843
5833 5836 5837 5839 5844 5845 5847 5852 5852 5855 5857 5859 5860 5861 5863 5864 5865 5865 5864 5863 5863 5862 5862 5862 5862 5863 5863 5862 5862 5863 5862 5861 5860 5858 5858 5857 5855 5854 5853 5852 5851 5849 5847 5846 5845 5843 5842 5840 5838
5826 5829 5830 5832 5838 5839 5843 5845 5847 5851 5853 5855 5856 5857 5859 5860 5861 5861 5860 5860 5859 5859 5858 5859 5860 5859 5858 5858 5858 5857 5858 5857 5856 5855 5853 5852 5850 5849 5848 5847 5846 5844 5842 5841 5840 5838 5837 5835 5832
5820 5822 5823 5827 5830 5833 5837 5839 5842 5847 5847 5850 5852 5852 5855 5856 5856 5856 5857 5856 5856 5855 5856 5857 5857 5857 5856 5853 5853 5853 5853 5853 5851 5850 5849 5847 5845 5844 5843 5842 5840 5838 5836 5835 5833 5831 5829 5827 5825
5810 5816 5816 5819 5824 5825 5829 5834 5839 5842 5842 5844 5846 5848 5850 5853 5852 5852 5851 5851 5851 5852 5854 5855 5854 5852 5852 5852 5849 5847 5847 5847 5846 5845 5843 5842 5840 5838 5837 5836 5835 5832 5830 5827 5825 5823 5821 5819 5817
5801 5806 5809 5813 5816 5818 5823 5830 5833 5834 5836 5839 5841 5844 5846 5847 5847 5846 5846 5845 5847 5849 5851 5849 5847 5848 5846 5846 5847 5845 5841 5840 5840 5837 5836 5834 5833 5832 5830 5829 5827 5825 5823 5820 5817 5815 5812 5810 5808
5790 5796 5800 5805 5808 5810 5815 5823 5825 5827 5829 5833 5835 5838 5840 5842 5843 5841 5840 5840 5843 5846 5845 5844 5842 5841 5840 5840 5837 5838 5839 5834 5831 5831 5827 5826 5825 5824 5822 5820 5818 5816 5814 5812 5810 5807 5803 5801 5798
5785 5788 5795 5797 5803 5803 5807 5813 5818 5818 5822 5826 5829 5832 5834 5837 5837 5833 5834 5834 5840 5839 5836 5838 5837 5835 5833 5832 5833 5830 5828 5828 5827 5824 5820 5817 5815 5814 5813 5810 5808 5806 5805 5803 5799 5796 5793 5791 5788
5777 5779 5782 5788 5792 5792 5797 5802 5811 5811 5814 5819 5823 5824 5827 5829 5829 5826 5825 5831 5832 5829 5830 5830 5829 5827 5825 5825 5824 5823 5821 5818 5816 5816 5813 5811 5808 5804 5802 5800 5797 5795 5794 5791 5788 5786 5783 5780 5776
5766 5769 5772 5778 5781 5783 5789 5793 5800 5803 5808 5812 5812 5815 5819 5819 5820 5819 5821 5823 5821 5821 5820 5819 5819 5818 5816 5815 5814 5814 5812 5810 5807 5804 5804 5802 5800 5796 5793 5790 5787 5784 5782 5780 5777 5774 5771 5769 5764
5757 5760 5763 5768 5772 5774 5777 5782 5790 5797 5796 5798 5804 5808 5809 5809 5810 5811 5814 5813 5813 5813 5812 5811 5809 5808 5806 5805 5803 5801 5801 5799 5797 5795 5793 5791 5788 5785 5782 5780 5777 5773 5769 5767 5764 5761 5759 5756 5754
5744 5750 5753 5756 5759 5763 5765 5768 5778 5784 5790 5791 5795 5798 5799 5800 5800 5804 5804 5804 5803 5802 5801 5799 5798 5796 5795 5794 5793 5792 5790 5787 5786 5784 5781 5779 5777 5773 5771 5767 5764 5760 5756 5754 5751 5748 5746 5743 5740
5737 5740 5742 5745 5746 5748 5755 5756 5769 5772 5778 5783 5787 5788 5790 5790 5792 5793 5792 5792 5791 5789 5788 5787 5785 5785 5784 5783 5781 5779 5777 5775 5772 5770 5768 5766 5764 5761 5758 5754 5750 5746 5743 5740 5738 5735 5733 5729 5726
5724 5728 5730 5731 5731 5733 5746 5746 5754 5764 5770 5773 5775 5777 5780 5781 5781 5781 5780 5779 5778 5776 5774 5774 5773 5772 5772 5771 5769 5767 5764 5762 5760 5757 5754 5752 5750 5746 5742 5738 5735 5731 5729 5726 5725 5722 5719 5716 5713
5715 5717 5718 5716 5720 5725 5737 5736 5748 5752 5756 5760 5766 5769 5768 5767 5768 5768 5767 5766 5766 5764 5762 5761 5761 5760 5759 5758 5756 5754 5752 5749 5746 5744 5740 5738 5734 5730 5726 5723 5720 5717 5715 5712 5710 5708 5705 5702 5700
5707 5708 5709 5711 5711 5715 5721 5722 5733 5741 5744 5746 5750 5751 5753 5755 5755 5753 5754 5753 5752 5750 5749 5747 5747 5746 5746 5744 5743 5740 5737 5734 5732 5729 5725 5721 5718 5714 5710 5707 5704 5702 5701 5698 5697 5695 5693 5689 5685
5694 5692 5704 5699 5701 5698 5705 5716 5719 5731 5731 5734 5736 5738 5738 5740 5740 5739 5738 5737 5736 5736 5734 5734 5733 5732 5731 5729 5727 5725 5722 5719 5716 5712 5708 5704 5701 5697 5694 5693 5691 5689 5687 5685 5684 5682 5678 5675 5672
5679 5686 5684 5684 5686 5686 5694 5702 5712 5717 5719 5719 5720 5722 5724 5726 5726 5725 5722 5720 5719 5719 5720 5720 5720 5717 5716 5715 5713 5710 5707 5704 5700 5697 5692 5689 5686 5684 5681 5679 5678 5676 5675 5673 5670 5667 5664 5661 5658
5671 5671 5673 5675 5677 5678 5683 5689 5703 5707 5701 5705 5708 5708 5711 5711 5709 5710 5707 5703 5703 5703 5704 5704 5702 5702 5701 5700 5698 5694 5691 5687 5683 5680 5678 5675 5673 5670 5668 5667 5665 5663 5661 5659 5656 5654 5651 5648 5646
5652 5656 5659 5659 5666 5665 5666 5670 5696 5693 5688 5689 5692 5694 5695 5694 5693 5693 5692 5689 5688 5687 5686 5686 5686 5685 5684 5682 5680 5677 5674 5671 5669 5667 5665 5662 5660 5658 5657 5655 5653 5651 5648 5646 5643 5641 5638 5635 5632